This demonstration page uses our WeatherBlox Daily Observations layout. Learn more.

Hourly Observations for July 3, 2015

Temp ( °F °C ) Dew Point ( °F °C ) Humidity (%) Winds ( mph kmh ) Pressure ( in mb ) Visibility ( mi km ) Precip ( " mm )
12:15 am 00:15 Clear 65 18.4 62 16.6 89 89 NNE 5 7 29.97 1015 10 16.0934 0 0
12:35 am 00:35 Clear 64 18 62 16.4 90 90 NE 6 9 29.97 1015 10 16.0934 0 0
12:55 am 00:55 Clear 64 17.6 61 16.3 92 92 NE 3 6 29.97 1015 7 11.26538 0 0
1:15 am 01:15 Clear 64 17.5 61 16.3 93 93 NE 6 9 29.97 1015 7 11.26538 0 0
1:35 am 01:35 Clear with Mist and Fog 63 17.2 61 16 93 93 Calm 29.97 1015 5 8.0467 0 0
1:55 am 01:55 Partly Cloudy with Mist and Fog 62 16.9 60 15.8 93 93 Calm 29.97 1015 5 8.0467 0 0
2:15 am 02:15 Clear with Mist and Fog 62 16.5 60 15.6 94 94 Calm 29.97 1015 3 4.82802 0 0
2:35 am 02:35 Mostly Cloudy with Mist and Fog 62 16.8 61 16 95 95 Calm 29.97 1015 3 4.82802 0 0
2:55 am 02:55 Mostly Cloudy with Mist and Fog 62 16.5 60 15.6 94 94 N 3 6 29.97 1015 3 4.82802 0 0
3:15 am 03:15 Cloudy with Mist and Fog 62 16.6 61 15.9 96 96 NNE 8 13 29.97 1015 2 3.21868 0 0
3:35 am 03:35 Cloudy with Mist and Fog 62 16.7 61 16 96 96 N 7 11 29.97 1015 0.75 1.207005 0 0
3:55 am 03:55 Cloudy with Mist and Fog 62 16.7 61 16 96 96 NNE 6 9 29.97 1015 2.5 4.02335 0 0
4:15 am 04:15 Cloudy with Mist and Fog 62 16.6 61 16 96 96 N 8 13 29.97 1015 1 1.60934 0 0
4:35 am 04:35 Cloudy with Fog 62 16.5 60 15.8 96 96 N 7 11 29.97 1015 0.5 0.80467 0 0
4:55 am 04:55 Cloudy with Fog 62 16.5 61 16 97 97 NNE 7 11 29.97 1015 0.5 0.80467 0 0
5:15 am 05:15 Cloudy with Fog 62 16.5 60 15.8 96 96 NNE 8 13 29.97 1015 0.5 0.80467 0 0
5:35 am 05:35 Cloudy with Mist and Fog 62 16.5 61 15.9 96 96 NNE 10 17 29.97 1015 0.75 1.207005 0 0
5:55 am 05:55 Cloudy with Mist and Fog 62 16.5 60 15.8 96 96 NNE 10 17 29.97 1015 3 4.82802 0 0
6:15 am 06:15 Cloudy with Mist and Fog 62 16.5 60 15.8 96 96 NNE 5 7 29.97 1015 2 3.21868 0 0
6:35 am 06:35 Cloudy with Mist and Fog 62 16.4 60 15.8 96 96 N 7 11 30 1016 2 3.21868 0 0
6:55 am 06:55 Cloudy with Mist and Fog 61 16.2 60 15.6 96 96 N 9 15 30.03 1017 1.75 2.816345 0 0
7:15 am 07:15 Cloudy with Mist and Fog 61 16.2 60 15.6 96 96 N 6 9 30.03 1017 3 4.82802 0 0
7:35 am 07:35 Cloudy with Mist and Fog 62 16.5 61 16 97 97 NNE 7 11 30 1016 5 8.0467 0 0
7:55 am 07:55 Cloudy with Mist and Fog 63 17 61 16.1 94 94 N 5 7 30 1016 5 8.0467 0 0
8:15 am 08:15 Cloudy with Mist and Fog 63 17.2 61 16.1 93 93 Calm 30 1016 5 8.0467 0 0
8:35 am 08:35 Cloudy with Mist and Fog 63 17.4 61 16.1 92 92 N 3 6 30 1016 5 8.0467 0 0
8:55 am 08:55 Cloudy with Mist and Fog 64 17.5 61 16.1 92 92 NNE 5 7 30 1016 5 8.0467 0 0
9:15 am 09:15 Cloudy 64 18 61 16.2 89 89 NNE 5 7 30.03 1017 7 11.26538 0 0
9:35 am 09:35 Cloudy 64 18 61 15.9 88 88 N 5 7 30.03 1017 7 11.26538 0 0
9:55 am 09:55 Cloudy 65 18.5 61 16 85 85 N 7 11 30.03 1017 10 16.0934 0 0
10:15 am 10:15 Cloudy 66 18.7 59 15.2 80 80 N 7 11 30.03 1017 10 16.0934 0 0
10:35 am 10:35 Cloudy 66 18.8 59 15.2 80 80 NE 5 7 30.03 1017 10 16.0934 0 0
10:55 am 10:55 Cloudy 66 19 59 15.1 78 78 NNE 5 7 30.03 1017 10 16.0934 0 0
11:15 am 11:15 Cloudy 67 19.3 59 15.1 77 77 NNW 5 7 30.03 1017 10 16.0934 0 0
11:35 am 11:35 Cloudy 68 19.8 60 15.3 75 75 ENE 3 6 30 1016 10 16.0934 0 0
11:55 am 11:55 Cloudy 68 19.9 60 15.3 75 75 NNE 3 6 30.03 1017 10 16.0934 0 0
12:15 pm 12:15 Cloudy 69 20.7 60 15.7 73 73 ESE 3 6 29.97 1015 10 16.0934 0 0
12:35 pm 12:35 Cloudy 70 20.9 60 15.3 70 70 Calm 30 1016 10 16.0934 0 0
12:55 pm 12:55 Cloudy 72 22 61 15.9 68 68 Calm 29.97 1015 10 16.0934 0 0
1:15 pm 13:15 Mostly Cloudy 72 22.1 60 15.7 67 67 N 3 6 29.97 1015 10 16.0934 0 0
1:35 pm 13:35 Partly Cloudy 73 23 60 15.7 64 64 W 3 6 29.97 1015 10 16.0934 0 0
1:55 pm 13:55 Partly Cloudy 73 22.8 60 15.6 64 64 NNE 6 9 29.97 1015 10 16.0934 0 0
2:15 pm 14:15 Mostly Cloudy 73 23 60 15.6 63 63 Calm 29.97 1015 10 16.0934 0 0
2:35 pm 14:35 Partly Cloudy 75 23.7 60 15.8 61 61 ENE 3 6 29.94 1014 10 16.0934 0 0
2:55 pm 14:55 Hazy 75 23.9 59 15.1 58 58 NE 5 7 29.91 1013 5 8.0467 0 0
3:15 pm 15:15 Partly Cloudy 75 24.1 60 15.6 59 59 E 7 11 29.91 1013 10 16.0934 0 0
3:35 pm 15:35 Mostly Cloudy 76 24.3 59 15.1 57 57 NE 3 6 29.91 1013 10 16.0934 0 0
3:55 pm 15:55 Partly Cloudy 76 24.2 60 15.5 58 58 ENE 6 9 29.91 1013 10 16.0934 0 0
4:15 pm 16:15 Partly Cloudy 76 24.6 60 15.6 57 57 SE 3 6 29.91 1013 10 16.0934 0 0
4:35 pm 16:35 Sunny 77 25.1 60 15.3 55 55 E 3 6 29.88 1012 10 16.0934 0 0
4:55 pm 16:55 Sunny 77 25 60 15.6 56 56 ENE 9 15 29.88 1012 10 16.0934 0 0
5:15 pm 17:15 Sunny 77 25 59 15.2 55 55 NE 3 6 29.88 1012 10 16.0934 0 0
5:35 pm 17:35 Sunny 77 24.8 59 15 55 55 ESE 5 7 29.88 1012 10 16.0934 0 0
5:55 pm 17:55 Sunny 77 25 60 15.3 55 55 E 7 11 29.88 1012 10 16.0934 0 0
6:15 pm 18:15 Sunny 77 25 60 15.6 56 56 E 6 9 29.88 1012 10 16.0934 0 0
6:35 pm 18:35 Sunny 76 24.7 59 15.2 56 56 ESE 3 6 29.88 1012 10 16.0934 0 0
6:55 pm 18:55 Sunny 76 24.5 60 15.6 58 58 ESE 8 13 29.88 1012 10 16.0934 0 0
7:15 pm 19:15 Sunny 76 24.5 60 15.7 58 58 ESE 8 13 29.88 1012 10 16.0934 0 0
7:35 pm 19:35 Sunny 75 24 60 15.8 60 60 E 7 11 29.85 1011 10 16.0934 0 0
7:55 pm 19:55 Sunny 74 23.5 61 15.9 62 62 ESE 7 11 29.85 1011 10 16.0934 0 0
8:15 pm 20:15 Sunny 73 22.8 62 16.6 68 68 ESE 5 7 29.85 1011 10 16.0934 0 0
8:35 pm 20:35 Sunny 72 22 62 16.7 72 72 ESE 3 6 29.91 1013 10 16.0934 0 0
8:55 pm 20:55 Sunny 71 21.4 62 16.9 76 76 SE 5 7 29.91 1013 10 16.0934 0 0
9:15 pm 21:15 Clear 69 20.8 63 17 79 79 SE 5 7 29.91 1013 10 16.0934 0 0
9:35 pm 21:35 Clear 69 20.8 62 16.9 78 78 SSE 6 9 29.91 1013 10 16.0934 0 0
9:55 pm 21:55 Clear 68 20 62 16.5 80 80 SE 6 9 29.91 1013 10 16.0934 0 0
10:15 pm 22:15 Clear 66 19.1 61 16.1 83 83 SE 6 9 29.94 1014 10 16.0934 0 0
10:35 pm 22:35 Clear 66 18.7 61 16 84 84 SE 7 11 29.97 1015 10 16.0934 0 0
10:55 pm 22:55 Clear 65 18.5 61 16 85 85 SE 7 11 29.97 1015 10 16.0934 0 0
11:15 pm 23:15 Clear 64 18 60 15.7 87 87 SE 6 9 29.97 1015 10 16.0934 0 0
11:35 pm 23:35 Clear 64 18 60 15.6 86 86 SE 5 7 29.97 1015 7 11.26538 0 0
11:55 pm 23:55 Clear 64 17.7 60 15.5 87 87 SE 6 9 29.97 1015 7 11.26538 0 0

Powered by AerisWeather